This is the latest recevied weather packets stored in our database for station/object KR4KUV. If no packets are shown the sender has not sent any weather packets the latest 10 day(s).
| Time | Temp. | Humidity | Pressure | Rain* | Wind** | Luminosity | Snow |
|---|---|---|---|---|---|---|---|
| 1787847013 | 28.89° C | 74% | 1018.1 hPa | 0 mm | - | 719 W/m² | - |
| 1787846712 | 28.89° C | 75% | 1018.3 hPa | 0 mm | - | 692 W/m² | - |
| 1787846408 | 28.33° C | 75% | 1018.4 hPa | 0 mm | - | 678 W/m² | - |
| 1787846103 | 28.89° C | 77% | 1018.4 hPa | 0 mm | - | 648 W/m² | - |
| 1787845799 | 28.89° C | 75% | 1018.5 hPa | 0 mm | - | 634 W/m² | - |
| 1787845494 | 28.33° C | 78% | 1018.6 hPa | 0 mm | - | 616 W/m² | - |
| 1787845189 | 27.22° C | 78% | 1018.6 hPa | 0 mm | - | 622 W/m² | - |
| 1787844885 | 26.67° C | 81% | 1018.6 hPa | 0 mm | - | 152 W/m² | - |
| 1787844584 | 27.22° C | 80% | 1018.6 hPa | 0 mm | - | 142 W/m² | - |
| 1787844280 | 27.22° C | 79% | 1018.5 hPa | 0 mm | - | 161 W/m² | - |
| 1787843978 | 27.22° C | 81% | 1018.3 hPa | 0 mm | - | 506 W/m² | - |
| 1787843674 | 27.22° C | 80% | 1018.5 hPa | 0 mm | - | 152 W/m² | - |
| 1787843370 | 27.78° C | 79% | 1018.2 hPa | 0 mm | - | 145 W/m² | - |
| 1787843066 | 27.22° C | 78% | 1018.4 hPa | 0 mm | - | 300 W/m² | - |
| 1787842765 | 27.22° C | 81% | 1018.3 hPa | 0 mm | - | 131 W/m² | - |
| 1787842460 | 26.67° C | 81% | 1018.6 hPa | 0 mm | - | 132 W/m² | - |
| 1787842155 | 26.67° C | 81% | 1018.3 hPa | 0 mm | - | 115 W/m² | - |
| 1787841850 | 26.67° C | 82% | 1018.2 hPa | 0 mm | - | 147 W/m² | - |
| 1787841546 | 26.11° C | 84% | 1018.1 hPa | 0 mm | - | 144 W/m² | - |
| 1787841244 | 25.56° C | 84% | 1018.1 hPa | 0 mm | - | 160 W/m² | - |
| 1787840939 | 25.56° C | 85% | 1018.1 hPa | 0 mm | - | 122 W/m² | - |
| 1787840635 | 25.56° C | 86% | 1018.1 hPa | 0 mm | - | 109 W/m² | - |
| 1787840330 | 25.56° C | 86% | 1018.2 hPa | 0 mm | - | 81 W/m² | - |
| 1787840030 | 25.56° C | 87% | 1018 hPa | 0 mm | - | 85 W/m² | - |
| 1787839724 | 26.11° C | 85% | 1018 hPa | 0 mm | - | 79 W/m² | - |
* Rain latest hour (hover to see other rain measurements)
** Current wind speed in m/s (hover to see current wind gust speed)